[[{"header":{"parameterUnit":"m.s-1","parameterCategory":2,"la1":30.2991,"la2":30.254,"lo1":-89.0895,"lo2":-89.0444,"dy":0.0017,"dx":0.0017,"nx":28,"ny":28,"refTime":"2025-08-06T21:00:00:Z","depth":"0","parameterNumber":2,"parameterNumberName":"U-component_of_CURRENTS"},"data":[0,0,0,0,0,0,0,0,0,0,0,0,0,0,0,0,0,0,0,0,0,0,0,0,0,0,0,0,0,0,0,0,0,0,0,0,0,0,0,0,0,0,0,0,0,0,0,0,0,0,0,0,0,0,0,0,0,0,0.343,0.343,0,0.3363,0.3362,0.3361,0.3314,0.3314,0.3313,0.3313,0.3272,0.3271,0.327,0,0,0,0,0,0,0,0,0,0,0,0,0,0.3596,0.3592,0.343,0.343,0.3429,0.3363,0.3362,0.3361,0.3314,0.3314,0.3313,0.3313,0.3272,0.3271,0.327,0,0,0,0,0,0,0,0,0,0,0,0,0,0.3525,0.3591,0.3431,0.3398,0.3394,0.3363,0.3362,0.3361,0.3314,0.3314,0.3313,0.3313,0.3273,0.3271,0.327,0.3273,0,0,0.3267,0.3266,0,0,0,0,0,0,0,0,0.3529,0.3519,0.3403,0.34,0.3396,0.3347,0.3405,0.3333,0.3314,0.3344,0.3313,0.3313,0.33,0.3296,0.3284,0.3271,0.327,0.3267,0.3266,0.3265,0.3265,0,0,0,0,0,0,0,0.3534,0.3522,0.3403,0.3402,0.3398,0.3413,0.3401,0.3391,0.3326,0.3342,0.3338,0.3331,0.3298,0.3285,0.3283,0.3269,0.3267,0.3266,0.3265,0.3264,0.3317,0.3319,0,0,0,0,0,0,0.3539,0.3526,0.3406,0.3401,0.3463,0.341,0.3397,0.3363,0.3326,0.3319,0.3332,0.3329,0.3288,0.3284,0.3281,0.3334,0.3265,0.3264,0.3264,0.3315,0.3317,0.332,0,0,0,0,0,0,0.3542,0.3527,0.3408,0.3465,0.345,0.3407,0.3369,0.3362,0.3355,0.3318,0.3312,0.3333,0.3287,0.3283,0.329,0.333,0.3264,0.3263,0.3312,0.3316,0.3318,0.3406,0,0,0,0,0,0,0.3546,0.3528,0.3526,0.3464,0.3447,0.3405,0.3369,0.3361,0.3351,0.3347,0.3317,0.3312,0.3286,0.3292,0.3289,0.3327,0.3262,0.331,0.3314,0.3317,0.34,0.3412,0.3421,0,0,0,0,0,0.3552,0.3551,0.3525,0.3512,0.3437,0.3406,0.34,0.3368,0.3352,0.3359,0.3341,0.3314,0.3315,0.3292,0.3288,0.3327,0.3308,0.3313,0.3317,0.3396,0.3409,0.3421,0,0,0,0,0,0,0.3627,0.3544,0.3515,0.3488,0.3456,0.3398,0.3406,0.3378,0.3367,0.3366,0.333,0.3325,0.335,0.3328,0.3304,0.3357,0.3311,0.3315,0.3373,0.3385,0.3395,0.345,0.3261,0,0,0,0,0,0.3639,0.3613,0.3543,0.3529,0.3511,0.346,0.345,0.3421,0.3394,0.3388,0.3365,0.3356,0.3366,0.3366,0.3363,0.3384,0.3422,0.3411,0.3422,0.3431,0.3475,0.3586,0.3612,0.3335,0.3335,0.3335,0,0,0.3667,0.3619,0.3607,0.3544,0.3514,0.35,0.3453,0.3437,0.3438,0.3387,0.3397,0.3389,0.3381,0.3408,0.3419,0.3394,0.3522,0.3437,0.3444,0.3484,0.3594,0.3622,0.3646,0.3338,0.3338,0.3337,0,0,0.3705,0.3662,0.3649,0.3625,0.3579,0.3548,0.3546,0.3491,0.3483,0.348,0.3463,0.3495,0.3469,0.3497,0.3503,0.3575,0.3576,0.3559,0.3654,0.3761,0.3785,0.3807,0.3862,0.3889,0.3562,0.3562,0.3563,0,0.374,0.3698,0.3651,0.3636,0.3623,0.3572,0.3565,0.3557,0.3518,0.3543,0.3496,0.3548,0.3526,0.3614,0.3633,0.3604,0.3645,0.36,0.3778,0.38,0.3822,0.3873,0.3901,0.3567,0.3567,0.3566,0.3566,0,0.3755,0.3734,0.3731,0.3686,0.3681,0.3666,0.3637,0.3648,0.3626,0.363,0.3697,0.3683,0.3727,0.3719,0.369,0.3834,0.3806,0.3779,0.3749,0.3856,0.3901,0.3929,0.3574,0.3572,0.3571,0.357,0,0,0.376,0.3741,0.3734,0.3721,0.3697,0.3679,0.3722,0.3742,0.3791,0.3787,0.3869,0.3895,0.3912,0.3924,0.3908,0.3992,0.4148,0.3953,0.3956,0.4014,0.4364,0.4248,0.4267,0.4155,0.4161,0.4165,0.4324,0,0.3768,0.3752,0.3751,0.375,0.3728,0.3736,0.3781,0.3816,0.3846,0.3922,0.3971,0.4035,0.3982,0.401,0.4096,0.4138,0.4231,0.4106,0.4248,0.4252,0.4144,0.43,0.4061,0.4176,0.4351,0.4356,0.4359,0,0.3745,0.3738,0.3737,0.3756,0.3753,0.3768,0.3837,0.3876,0.4006,0.4045,0.4157,0.4193,0.4327,0.4253,0.4433,0.4355,0.4387,0.4411,0.4417,0.4312,0.4192,0.4104,0.422,0.4103,0.4402,0.4399,0.4395,0,0.3708,0.3714,0.3711,0.3711,0.3744,0.3772,0.3806,0.3918,0.3985,0.4149,0.4234,0.4381,0.4449,0.4556,0.4591,0.4538,0.4774,0.4699,0.4635,0.4624,0.4453,0.4417,0.4484,0.487,0.4869,0.4869,0.4868,0,0.3674,0.3663,0.3691,0.368,0.3711,0.375,0.3833,0.3902,0.4055,0.4172,0.4299,0.4415,0.4536,0.466,0.4688,0.4751,0.486,0.4709,0.4691,0.4468,0.4434,0.4346,0.4299,0.4875,0.4873,0.4872,0.4871,0,0.3609,0.3628,0.362,0.3663,0.3681,0.37,0.3818,0.3897,0.4047,0.4212,0.4279,0.4481,0.4644,0.4743,0.4902,0.4851,0.4788,0.4922,0.4623,0.4567,0.4352,0.4316,0.4261,0.4138,0.4892,0.489,0.4889,0,0.357,0.3557,0.359,0.3605,0.3618,0.3673,0.373,0.3869,0.3966,0.4239,0.4316,0.4538,0.4659,0.4842,0.4814,0.4873,0.4762,0.4675,0.4539,0.4365,0.4315,0.4154,0.4043,0.4335,0.433,0.4325,0.4322,0,0.35,0.3513,0.352,0.3558,0.3593,0.3642,0.373,0.3802,0.3996,0.4138,0.433,0.4457,0.4614,0.4561,0.4622,0.4621,0.4421,0.4579,0.4505,0.4,0.3731,0.359,0.4176,0.4281,0.4285,0.4288,0.429,0.4292,0.3454,0.3447,0.3477,0.35,0.3547,0.3591,0.3601,0.3722,0.3846,0.3995,0.4193,0.4271,0.4317,0.4355,0.4334,0.412,0.4145,0.3965,0.3973,0.3854,0.3628,0.4106,0.4117,0.412,0.4122,0.4125,0.4127,0,0.3385,0.3397,0.3425,0.3443,0.3452,0.3507,0.3583,0.3571,0.364,0.3792,0.3897,0.3891,0.3843,0.3864,0.3706,0.3528,0.3361,0.344,0.3174,0.3124,0.3648,0.3514,0.3265,0.3265,0.3265,0.3265,0.3265,0.3265,0.3355,0.3347,0.3355,0.3336,0.3347,0.3303,0.3306,0.3305,0.3361,0.3338,0.3299,0.3346,0.3466,0.3437,0.324,0.3147,0.2913,0.2734,0.2804,0.3179,0.3227,0.3274,0.3138,0.2813,0.2813,0.2088,0.2083,0.2079]},{"header":{"parameterUnit":"m.s-1","parameterCategory":2,"la1":30.2991,"la2":30.254,"lo1":-89.0895,"lo2":-89.0444,"dy":0.0017,"dx":0.0017,"nx":28,"ny":28,"refTime":"2025-08-06T21:00:00:Z","depth":"0","parameterNumber":3,"parameterNumberName":"V-component_of_CURRENTS"},"data":[0,0,0,0,0,0,0,0,0,0,0,0,0,0,0,0,0,0,0,0,0,0,0,0,0,0,0,0,0,0,0,0,0,0,0,0,0,0,0,0,0,0,0,0,0,0,0,0,0,0,0,0,0,0,0,0,0,0,0.0247,0.0247,0,0.0202,0.0202,0.0201,0.0172,0.0171,0.0171,0.0171,0.0105,0.0103,0.0101,0,0,0,0,0,0,0,0,0,0,0,0,0,0.0255,0.0255,0.0248,0.0247,0.0247,0.0203,0.0202,0.0201,0.0172,0.0171,0.0171,0.0171,0.0105,0.0103,0.0101,0,0,0,0,0,0,0,0,0,0,0,0,0,0.0234,0.0255,0.0248,0.0228,0.0226,0.0203,0.0202,0.0201,0.0172,0.0171,0.0171,0.0171,0.0106,0.0104,0.0101,0.0087,0,0,0.0093,0.0092,0,0,0,0,0,0,0,0,0.0235,0.0233,0.0231,0.0229,0.0227,0.0194,0.018,0.0162,0.0172,0.019,0.0171,0.0171,0.0134,0.0129,0.0119,0.0084,0.0081,0.0093,0.0091,0.009,0.009,0,0,0,0,0,0,0,0.0237,0.0235,0.0228,0.0231,0.0228,0.0203,0.02,0.0176,0.0162,0.0189,0.0187,0.0184,0.0132,0.0121,0.0117,0.008,0.0093,0.0091,0.0089,0.0088,0.0042,0.0042,0,0,0,0,0,0,0.0248,0.0237,0.023,0.0227,0.0232,0.0203,0.02,0.0203,0.0162,0.0156,0.0184,0.0183,0.0126,0.012,0.0114,0.0119,0.009,0.0088,0.0086,0.0041,0.0042,0.0042,0,0,0,0,0,0,0.0249,0.0248,0.0231,0.0231,0.0228,0.0204,0.0207,0.0202,0.0196,0.0159,0.0153,0.0183,0.0125,0.0118,0.0102,0.0116,0.0087,0.0084,0.0041,0.0041,0.0042,0.0114,0,0,0,0,0,0,0.0249,0.0249,0.0252,0.0233,0.0228,0.0228,0.0207,0.0202,0.0195,0.0192,0.0156,0.015,0.0125,0.0106,0.01,0.0112,0.0082,0.0041,0.0041,0.0042,0.0111,0.0117,0.0121,0,0,0,0,0,0.025,0.0263,0.0253,0.0252,0.0235,0.0229,0.0224,0.0205,0.0195,0.0197,0.0173,0.0151,0.0105,0.0104,0.0097,0.0108,0.004,0.0041,0.0042,0.0109,0.0115,0.0121,0,0,0,0,0,0,0.0268,0.026,0.0249,0.0259,0.0247,0.0224,0.0224,0.021,0.0192,0.019,0.0155,0.0147,0.0135,0.0111,0.0111,0.0095,0.0069,0.0068,0.0122,0.0128,0.0134,0.016,0.008,0,0,0,0,0,0.0274,0.0282,0.0266,0.0273,0.027,0.0246,0.024,0.0229,0.0212,0.0203,0.0178,0.0151,0.0131,0.0122,0.0096,0.009,0.0082,0.0091,0.0097,0.0101,0.0117,0.0123,0.0131,0.0044,0.0044,0.0044,0,0,0.0283,0.0279,0.0284,0.0278,0.0265,0.0275,0.0242,0.0241,0.0249,0.0199,0.0199,0.0165,0.0131,0.0124,0.0117,0.0108,0.012,0.0102,0.0107,0.012,0.0124,0.0133,0.0141,0.0045,0.0045,0.0045,0,0,0.0314,0.0302,0.0322,0.0316,0.0306,0.0295,0.0299,0.0279,0.027,0.0262,0.023,0.0211,0.0175,0.0161,0.0147,0.0166,0.0143,0.0151,0.0206,0.0211,0.0219,0.0226,0.0225,0.0231,0.016,0.016,0.016,0,0.0324,0.0349,0.0326,0.0342,0.0348,0.0311,0.0337,0.0321,0.0299,0.0304,0.0272,0.0238,0.0197,0.0208,0.0206,0.018,0.0178,0.0187,0.0221,0.0227,0.0233,0.023,0.0236,0.0163,0.0163,0.0163,0.0162,0,0.0372,0.0389,0.0399,0.0413,0.0413,0.0427,0.0409,0.0403,0.0383,0.0375,0.0371,0.0317,0.0302,0.028,0.0243,0.0266,0.0249,0.0224,0.0211,0.0247,0.024,0.0245,0.0168,0.0167,0.0166,0.0165,0,0,0.0405,0.0432,0.0434,0.0459,0.0455,0.0466,0.0475,0.0487,0.0514,0.0471,0.051,0.0445,0.0419,0.0401,0.0354,0.0351,0.0368,0.0308,0.0306,0.0318,0.0383,0.0346,0.0347,0.0355,0.0356,0.0357,0.0362,0,0.0452,0.051,0.0506,0.0559,0.059,0.0564,0.0585,0.0587,0.0578,0.0602,0.0552,0.0565,0.0466,0.0469,0.0442,0.0398,0.0385,0.0369,0.0337,0.0336,0.0309,0.0353,0.0352,0.0355,0.0367,0.0367,0.0368,0,0.0501,0.0538,0.0603,0.0651,0.0662,0.0683,0.072,0.0739,0.0751,0.0749,0.0741,0.0707,0.069,0.0604,0.054,0.0537,0.0462,0.0417,0.0416,0.0363,0.0309,0.032,0.0363,0.0209,0.0375,0.0374,0.0374,0,0.0549,0.0605,0.0665,0.0678,0.0722,0.0743,0.0767,0.0786,0.0833,0.0859,0.0907,0.0855,0.0858,0.0765,0.0632,0.06,0.0571,0.0515,0.0411,0.0407,0.0391,0.0384,0.0293,0.0474,0.0474,0.0474,0.0474,0,0.0604,0.065,0.0692,0.0724,0.0804,0.0808,0.0896,0.0904,0.0963,0.1064,0.0995,0.1068,0.09,0.0851,0.0707,0.0581,0.0623,0.0437,0.0414,0.0413,0.0408,0.0259,0.0161,0.0474,0.0474,0.0474,0.0474,0,0.0647,0.0672,0.0747,0.0806,0.0829,0.0887,0.0985,0.1056,0.1097,0.1229,0.1255,0.1241,0.1193,0.1013,0.0876,0.0695,0.0479,0.051,0.0512,0.0489,0.0229,0.0135,0.001,-0.0058,0.0407,0.0406,0.0406,0,0.0676,0.072,0.0808,0.0864,0.0893,0.0982,0.1055,0.1114,0.121,0.1359,0.1442,0.1433,0.1468,0.1233,0.0924,0.0675,0.0496,0.0472,0.0395,0.0231,0.011,0.003,-0.0023,0.0402,0.0401,0.04,0.04,0,0.0735,0.0762,0.0825,0.0942,0.1024,0.1138,0.125,0.1346,0.1458,0.1597,0.1767,0.1819,0.1595,0.1343,0.0954,0.0767,0.0353,0.0452,0.0295,0.0111,0.001,-0.007,0.0372,0.0395,0.0396,0.0396,0.0397,0.0397,0.0776,0.0832,0.0916,0.1027,0.1133,0.1282,0.1398,0.1555,0.175,0.198,0.2004,0.2132,0.1704,0.1195,0.0905,0.0337,0.0331,0.0155,0.0061,0.0001,-0.0088,0.0335,0.0319,0.0319,0.0319,0.0319,0.0319,0,0.0829,0.0894,0.1,0.1138,0.1269,0.1317,0.1524,0.1673,0.1936,0.2152,0.2319,0.2176,0.1695,0.1163,0.0379,0.0002,-0.0133,-0.0196,-0.0305,-0.0336,0.0062,0.0037,-0.0054,-0.0054,-0.0054,-0.0054,-0.0054,-0.0054,0.0859,0.0958,0.1013,0.1222,0.1333,0.1528,0.1658,0.1899,0.2094,0.2362,0.2442,0.2457,0.2003,0.0682,-0.0167,-0.0341,-0.0603,-0.0677,-0.0788,-0.0526,-0.05,-0.0475,-0.0521,-0.0728,-0.0729,-0.1136,-0.1141,-0.1144]}],[{"header":{"parameterUnit":"m.s-1","parameterCategory":2,"la1":30.2991,"la2":30.254,"lo1":-89.0895,"lo2":-89.0444,"dy":0.0017,"dx":0.0017,"nx":28,"ny":28,"refTime":"2025-08-06T21:00:00:Z","depth":"2","parameterNumber":2,"parameterNumberName":"U-component_of_CURRENTS"},"data":[0,0,0,0,0,0,0,0,0,0,0,0,0,0,0,0,0,0,0,0,0,0,0,0,0,0,0,0,0,0,0,0,0,0,0,0,0,0,0,0,0,0,0,0,0,0,0,0,0,0,0,0,0,0,0,0,0,0,0.2862,0.2863,0,0.2865,0.2864,0.2864,0.2849,0.2849,0.2849,0.2849,0.2836,0.2836,0.2836,0,0,0,0,0,0,0,0,0,0,0,0,0,0.2816,0.2817,0.2862,0.2863,0.2863,0.2865,0.2864,0.2864,0.2849,0.2849,0.2849,0.2849,0.2836,0.2836,0.2836,0,0,0,0,0,0,0,0,0,0,0,0,0,0.2826,0.2818,0.2862,0.2859,0.2859,0.2865,0.2864,0.2864,0.2849,0.2849,0.2849,0.2849,0.2836,0.2836,0.2835,0.2835,0,0,0.2834,0.2834,0,0,0,0,0,0,0,0,0.2825,0.2827,0.2859,0.2859,0.2859,0.286,0.2844,0.2855,0.2849,0.2849,0.2849,0.2849,0.2845,0.2844,0.284,0.2835,0.2834,0.2834,0.2834,0.2834,0.2834,0,0,0,0,0,0,0,0.2825,0.2827,0.286,0.2859,0.286,0.2847,0.2848,0.2845,0.2845,0.2849,0.2849,0.2855,0.2845,0.284,0.2839,0.2834,0.2834,0.2834,0.2834,0.2833,0.289,0.2892,0,0,0,0,0,0,0.2834,0.2827,0.286,0.286,0.2846,0.2849,0.285,0.2857,0.2845,0.2844,0.2855,0.2855,0.2841,0.284,0.2839,0.2889,0.2834,0.2833,0.2833,0.2888,0.289,0.2892,0,0,0,0,0,0,0.2833,0.2837,0.286,0.2846,0.2849,0.285,0.2858,0.2857,0.2866,0.285,0.2849,0.2868,0.2841,0.2839,0.2855,0.2887,0.2833,0.2833,0.2886,0.2889,0.2891,0.2958,0,0,0,0,0,0,0.2832,0.2836,0.2848,0.2847,0.285,0.2878,0.2858,0.2857,0.2871,0.2871,0.2861,0.2858,0.284,0.2856,0.2855,0.2885,0.2832,0.2884,0.2887,0.289,0.2953,0.2962,0.297,0,0,0,0,0,0.283,0.2843,0.2848,0.2853,0.2865,0.288,0.288,0.2878,0.2872,0.2884,0.288,0.2859,0.2876,0.2857,0.2855,0.2886,0.2882,0.2886,0.289,0.295,0.2961,0.297,0,0,0,0,0,0,0.2826,0.2844,0.2849,0.2867,0.2882,0.2879,0.2891,0.289,0.2894,0.2896,0.2875,0.2873,0.2902,0.2887,0.2866,0.2915,0.2879,0.2882,0.2925,0.2935,0.2943,0.2964,0.2832,0,0,0,0,0,0.2833,0.2849,0.2865,0.288,0.2893,0.2896,0.2904,0.2905,0.2909,0.291,0.2904,0.2904,0.2915,0.2919,0.2922,0.2942,0.2957,0.2965,0.2973,0.298,0.2998,0.3067,0.3083,0.2905,0.2905,0.2905,0,0,0.2831,0.2847,0.2853,0.2881,0.2892,0.2914,0.29,0.2921,0.2938,0.2909,0.2931,0.2933,0.2929,0.2956,0.2968,0.2947,0.3035,0.2985,0.2991,0.3005,0.3073,0.309,0.3106,0.2908,0.2907,0.2907,0,0,0.2838,0.2859,0.2876,0.2896,0.2926,0.2934,0.2947,0.296,0.2969,0.2991,0.2983,0.3009,0.3009,0.3022,0.3026,0.3085,0.3079,0.3084,0.314,0.3207,0.3222,0.3236,0.3261,0.3277,0.3086,0.3086,0.3086,0,0.2838,0.2861,0.2883,0.291,0.2927,0.2949,0.2971,0.2989,0.3004,0.3022,0.3009,0.3052,0.3045,0.3095,0.3117,0.3105,0.3131,0.3098,0.3219,0.3233,0.3246,0.3269,0.3285,0.309,0.3089,0.3089,0.3089,0,0.2855,0.288,0.2896,0.2937,0.2963,0.2987,0.302,0.305,0.3065,0.3081,0.3135,0.314,0.3167,0.3174,0.3162,0.3252,0.3235,0.3223,0.3193,0.3268,0.3286,0.3302,0.3095,0.3094,0.3093,0.3092,0,0,0.2834,0.2894,0.2899,0.292,0.2979,0.2996,0.305,0.31,0.3139,0.3169,0.3225,0.3256,0.3272,0.3281,0.328,0.3339,0.3442,0.3327,0.3329,0.3352,0.3575,0.3501,0.351,0.346,0.3464,0.3467,0.3545,0,0.2839,0.2881,0.2916,0.2958,0.2983,0.3032,0.3079,0.3131,0.3176,0.3239,0.3281,0.3335,0.3309,0.3339,0.3395,0.3435,0.3491,0.3421,0.35,0.3502,0.3428,0.3529,0.3218,0.3258,0.356,0.3563,0.3564,0,0.2838,0.287,0.2907,0.2969,0.2987,0.302,0.3103,0.3151,0.3254,0.3302,0.3377,0.3408,0.3499,0.3473,0.3586,0.3546,0.3575,0.36,0.3603,0.3526,0.3459,0.3236,0.3275,0.3591,0.3589,0.3587,0.3585,0,0.2795,0.2858,0.2884,0.2905,0.2985,0.3018,0.3069,0.3166,0.3223,0.336,0.3414,0.3517,0.3582,0.3647,0.3689,0.3656,0.3813,0.3764,0.372,0.3713,0.3459,0.3425,0.3866,0.3865,0.3865,0.3865,0.3865,0,0.2774,0.2796,0.2866,0.2879,0.2928,0.2995,0.3069,0.3144,0.3267,0.3351,0.3442,0.3522,0.364,0.3722,0.3743,0.3785,0.3856,0.3759,0.3749,0.3471,0.3438,0.3732,0.3715,0.3868,0.3867,0.3867,0.3866,0,0.2717,0.2762,0.2797,0.2877,0.2906,0.2942,0.3063,0.3116,0.3242,0.336,0.3413,0.3567,0.3683,0.3758,0.3887,0.3847,0.3897,0.3893,0.3544,0.3493,0.3729,0.3715,0.3844,0.3843,0.3842,0.3841,0.384,0,0.2687,0.27,0.2779,0.28,0.2835,0.2909,0.2959,0.31,0.316,0.337,0.3409,0.3582,0.366,0.3795,0.3797,0.3828,0.3908,0.3551,0.3436,0.3761,0.3738,0.3726,0.3714,0.3111,0.3104,0.3098,0.3094,0,0.2636,0.2667,0.2695,0.2739,0.2783,0.284,0.2919,0.2962,0.3136,0.3214,0.3339,0.3427,0.3581,0.3489,0.3557,0.3528,0.3518,0.344,0.3899,0.3173,0.3078,0.3053,0.3063,0.3044,0.3049,0.3053,0.3056,0.3058,0.2593,0.2597,0.2633,0.2664,0.2713,0.2738,0.2734,0.2816,0.2882,0.2967,0.3161,0.3183,0.3263,0.3199,0.3118,0.3055,0.3294,0.3127,0.314,0.316,0.307,0.298,0.2908,0.2912,0.2915,0.2918,0.2921,0,0.2524,0.2534,0.2555,0.2566,0.2555,0.2637,0.2673,0.2628,0.2623,0.2757,0.2829,0.2652,0.2606,0.2681,0.2503,0.251,0.2446,0.2408,0.2284,0.2337,0.2383,0.2249,0.1871,0.1868,0.1865,0.1862,0,0,0.2489,0.2462,0.2463,0.2401,0.2413,0.2362,0.2352,0.2298,0.2327,0.2286,0.2286,0.2512,0.2612,0.2214,0.2163,0.1981,0.2138,0.1903,0.2751,0.2659,0.27,0.2812,0.2668,0,0,0,0,0]},{"header":{"parameterUnit":"m.s-1","parameterCategory":2,"la1":30.2991,"la2":30.254,"lo1":-89.0895,"lo2":-89.0444,"dy":0.0017,"dx":0.0017,"nx":28,"ny":28,"refTime":"2025-08-06T21:00:00:Z","depth":"2","parameterNumber":3,"parameterNumberName":"V-component_of_CURRENTS"},"data":[0,0,0,0,0,0,0,0,0,0,0,0,0,0,0,0,0,0,0,0,0,0,0,0,0,0,0,0,0,0,0,0,0,0,0,0,0,0,0,0,0,0,0,0,0,0,0,0,0,0,0,0,0,0,0,0,0,0,0.0158,0.0157,0,0.0119,0.0118,0.0118,0.0092,0.0092,0.0092,0.0092,0.0032,0.0031,0.0029,0,0,0,0,0,0,0,0,0,0,0,0,0,0.0156,0.0156,0.0158,0.0157,0.0157,0.0119,0.0118,0.0117,0.0092,0.0092,0.0092,0.0092,0.0033,0.0031,0.0029,0,0,0,0,0,0,0,0,0,0,0,0,0,0.014,0.0156,0.0158,0.0141,0.0139,0.0119,0.0118,0.0117,0.0092,0.0092,0.0092,0.0092,0.0034,0.0031,0.0029,0.0016,0,0,0.0022,0.0021,0,0,0,0,0,0,0,0,0.0141,0.014,0.0144,0.0142,0.014,0.0111,0.0096,0.0083,0.0092,0.0108,0.0092,0.0092,0.0058,0.0054,0.0045,0.0014,0.0011,0.0022,0.002,0.0019,0.0019,0,0,0,0,0,0,0,0.0142,0.0141,0.0141,0.0143,0.0141,0.0116,0.0114,0.0093,0.0083,0.0107,0.0105,0.0103,0.0056,0.0047,0.0043,0.001,0.0022,0.002,0.0018,0.0018,-0.0023,-0.0023,0,0,0,0,0,0,0.0152,0.0142,0.0142,0.014,0.0141,0.0117,0.0114,0.0119,0.0083,0.0078,0.0103,0.0102,0.0051,0.0046,0.0041,0.0045,0.002,0.0017,0.0016,-0.0024,-0.0023,-0.0023,0,0,0,0,0,0,0.0153,0.0153,0.0144,0.0141,0.0138,0.0117,0.0123,0.0119,0.0113,0.0081,0.0075,0.0102,0.0051,0.0044,0.003,0.0041,0.0016,0.0014,-0.0024,-0.0024,-0.0023,0.0039,0,0,0,0,0,0,0.0153,0.0154,0.0158,0.0142,0.0139,0.0141,0.0123,0.0118,0.0112,0.011,0.0078,0.0072,0.005,0.0034,0.0028,0.0038,0.0012,-0.0024,-0.0024,-0.0023,0.0036,0.0041,0.0045,0,0,0,0,0,0.0153,0.0165,0.0158,0.0158,0.0147,0.0141,0.0138,0.0121,0.0112,0.0114,0.0093,0.0074,0.0033,0.0032,0.0025,0.0035,-0.0025,-0.0024,-0.0023,0.0034,0.004,0.0045,0,0,0,0,0,0,0.0166,0.0164,0.0156,0.0166,0.0157,0.0138,0.0137,0.0126,0.011,0.0108,0.0077,0.007,0.006,0.0038,0.0038,0.0024,0.0001,0.0,0.0047,0.0052,0.0057,0.0078,0.0011,0,0,0,0,0,0.0171,0.0181,0.017,0.0178,0.0175,0.0156,0.0151,0.0142,0.0127,0.012,0.0098,0.0074,0.0056,0.0048,0.0025,0.0019,-0.0002,0.002,0.0025,0.0029,0.0041,0.0021,0.0025,-0.0021,-0.0021,-0.0021,0,0,0.0178,0.0178,0.0182,0.0181,0.0171,0.0181,0.0153,0.0152,0.016,0.0116,0.0116,0.0087,0.0056,0.005,0.0043,0.0035,0.0028,0.0029,0.0033,0.0043,0.0022,0.0026,0.003,-0.002,-0.002,-0.0021,0,0,0.0202,0.0196,0.0214,0.0211,0.0206,0.0197,0.0201,0.0186,0.0178,0.0172,0.0144,0.0126,0.0096,0.0081,0.0068,0.0084,0.005,0.0073,0.0118,0.0098,0.0102,0.0105,0.0079,0.0079,0.0079,0.008,0.008,0,0.0209,0.0233,0.0216,0.0233,0.024,0.0211,0.0235,0.0222,0.0204,0.0205,0.0181,0.0144,0.0113,0.0114,0.0118,0.0096,0.0076,0.0102,0.0106,0.0108,0.011,0.0082,0.0082,0.0083,0.0082,0.0082,0.0082,0,0.0249,0.0266,0.0276,0.0293,0.0296,0.031,0.0297,0.0292,0.0276,0.0266,0.0255,0.0209,0.0191,0.0174,0.015,0.0154,0.0132,0.0111,0.0096,0.0119,0.0087,0.0086,0.0087,0.0086,0.0085,0.0084,0,0,0.0278,0.0302,0.0307,0.0329,0.0332,0.0344,0.0352,0.036,0.038,0.034,0.036,0.0311,0.0285,0.0269,0.023,0.0211,0.0201,0.0175,0.0172,0.0156,0.0154,0.0127,0.0122,0.0182,0.0182,0.0183,0.0124,0,0.0318,0.037,0.0368,0.0418,0.0446,0.0427,0.0445,0.0445,0.0434,0.0442,0.0388,0.039,0.0321,0.032,0.0285,0.0229,0.0201,0.0218,0.0127,0.0125,0.0104,0.0121,0.0143,0.0092,0.0122,0.0121,0.0121,0,0.0362,0.0395,0.0452,0.0496,0.0506,0.0527,0.0558,0.0574,0.0569,0.0563,0.054,0.0499,0.0464,0.0403,0.0307,0.0322,0.0245,0.019,0.0186,0.0142,0.0096,0.0073,0.0088,0.0118,0.0119,0.0119,0.0119,0,0.0404,0.0455,0.0506,0.052,0.056,0.0578,0.0601,0.0611,0.065,0.0648,0.0667,0.0604,0.059,0.0481,0.0351,0.0335,0.0244,0.0205,0.0103,0.01,0.0092,0.0087,0.0137,0.0137,0.0137,0.0138,0.0138,0,0.0453,0.0494,0.053,0.056,0.0632,0.0636,0.0712,0.0718,0.0755,0.0827,0.0738,0.0769,0.0611,0.0532,0.0392,0.0247,0.0269,0.0118,0.0088,0.0112,0.011,0.0112,0.011,0.0135,0.0136,0.0136,0.0137,0,0.0493,0.0512,0.058,0.0632,0.0654,0.0708,0.0797,0.0858,0.087,0.0957,0.0964,0.0907,0.0809,0.0628,0.0469,0.0319,0.0174,0.0114,0.0148,0.0122,0.0029,0.003,-0.0005,-0.0006,-0.0007,-0.0008,-0.0009,0,0.0518,0.0555,0.0636,0.0688,0.0715,0.0799,0.0867,0.0915,0.0996,0.1053,0.1106,0.1031,0.1001,0.0728,0.0472,0.022,0.0181,0.0059,0.0026,0.0043,0.0017,0.002,0.0023,0.0034,0.0033,0.0033,0.0033,0,0.0571,0.0594,0.0652,0.076,0.0838,0.0948,0.1048,0.113,0.1208,0.1266,0.1336,0.1312,0.1062,0.0818,0.0461,0.0286,0.0097,0.0044,0.0066,0.0067,0.0074,0.005,0.0052,0.003,0.003,0.003,0.0031,0.0031,0.0608,0.0659,0.0734,0.0839,0.094,0.108,0.1183,0.1299,0.143,0.1529,0.1507,0.1467,0.118,0.073,0.0419,0.0084,0.0101,-0.0032,-0.0029,-0.0026,-0.001,-0.0005,-0.0061,-0.0062,-0.0062,-0.0062,-0.0062,0,0.0659,0.0717,0.0812,0.094,0.106,0.1111,0.1294,0.1397,0.1556,0.1634,0.1677,0.1399,0.1117,0.0777,0.0289,-0.0006,-0.0027,-0.011,-0.007,-0.0065,-0.0061,-0.0046,-0.0108,-0.0109,-0.011,-0.011,0,0,0.0687,0.0777,0.0825,0.1013,0.1114,0.1288,0.1401,0.1543,0.1637,0.1704,0.1684,0.1632,0.1225,0.0859,0.046,0.0177,0.0121,0.0115,0.0184,0.0285,0.0292,0.0017,0.005,0,0,0,0,0]}],[{"header":{"parameterUnit":"m.s-1","parameterCategory":2,"la1":30.2991,"la2":30.254,"lo1":-89.0895,"lo2":-89.0444,"dy":0.0017,"dx":0.0017,"nx":28,"ny":28,"refTime":"2025-08-06T21:00:00:Z","depth":"4","parameterNumber":2,"parameterNumberName":"U-component_of_CURRENTS"},"data":[0,0,0,0,0,0,0,0,0,0,0,0,0,0,0,0,0,0,0,0,0,0,0,0,0,0,0,0,0,0,0,0,0,0,0,0,0,0,0,0,0,0,0,0,0,0,0,0,0,0,0,0,0,0,0,0,0,0,0.1834,0.1835,0,0.19,0.1901,0.1901,0.1954,0.1954,0.1955,0.1956,0.2021,0.2022,0.2022,0,0,0,0,0,0,0,0,0,0,0,0,0,0.1722,0.1724,0.1834,0.1835,0.1836,0.19,0.1901,0.1901,0.1953,0.1954,0.1955,0.1956,0.202,0.2021,0.2022,0,0,0,0,0,0,0,0,0,0,0,0,0,0.1774,0.1725,0.1834,0.1873,0.1877,0.19,0.1901,0.1901,0.1953,0.1954,0.1956,0.1957,0.202,0.2021,0.2023,0.2005,0,0,0.2027,0.2027,0,0,0,0,0,0,0,0,0.1771,0.1778,0.1866,0.187,0.1875,0.1923,0.1885,0.1937,0.1953,0.192,0.1956,0.1958,0.199,0.1993,0.1997,0.2008,0.201,0.2027,0.2028,0.2028,0.2029,0,0,0,0,0,0,0,0.1768,0.1775,0.1856,0.1867,0.1873,0.1877,0.1886,0.1895,0.1943,0.1923,0.1928,0.1941,0.1992,0.1996,0.1999,0.2011,0.2027,0.2028,0.2029,0.2029,0.2132,0.2134,0,0,0,0,0,0,0.1768,0.1772,0.1854,0.1859,0.183,0.1879,0.1888,0.1903,0.1944,0.1952,0.194,0.1944,0.1993,0.1998,0.2002,0.2091,0.2028,0.203,0.203,0.2131,0.2133,0.2135,0,0,0,0,0,0,0.1765,0.1774,0.1851,0.182,0.183,0.188,0.1896,0.1904,0.1952,0.1957,0.1965,0.1985,0.1994,0.2,0.205,0.209,0.203,0.2031,0.2128,0.2131,0.2134,0.22,0,0,0,0,0,0,0.1762,0.1773,0.1799,0.182,0.1832,0.1893,0.1896,0.1905,0.1957,0.1963,0.1997,0.2002,0.1996,0.2048,0.2052,0.2091,0.2032,0.2126,0.213,0.2133,0.2196,0.2205,0.2213,0,0,0,0,0,0.1757,0.178,0.18,0.1811,0.1862,0.1895,0.1902,0.1937,0.1958,0.1984,0.2013,0.2004,0.2074,0.2051,0.2054,0.2095,0.2124,0.2129,0.2133,0.2192,0.2203,0.2213,0,0,0,0,0,0,0.1743,0.1788,0.1811,0.1847,0.1885,0.1906,0.1938,0.1961,0.2002,0.2022,0.2024,0.2031,0.209,0.2085,0.2059,0.2137,0.2099,0.2104,0.2143,0.2153,0.2162,0.2158,0.2034,0,0,0,0,0,0.1753,0.1785,0.1825,0.1858,0.1883,0.1919,0.1945,0.1973,0.2004,0.2027,0.205,0.2078,0.2102,0.2124,0.2141,0.218,0.2181,0.2211,0.2219,0.2227,0.2227,0.2267,0.2279,0.2149,0.2149,0.2149,0,0,0.1756,0.1786,0.1806,0.1859,0.1892,0.1929,0.1939,0.1992,0.2028,0.2025,0.2091,0.2112,0.212,0.2167,0.2194,0.2174,0.2268,0.2232,0.2238,0.2235,0.2273,0.2285,0.2296,0.2152,0.2152,0.2151,0,0,0.1765,0.1811,0.1841,0.1876,0.194,0.1963,0.1989,0.204,0.2076,0.2133,0.2143,0.219,0.2229,0.2242,0.2251,0.2318,0.2313,0.2334,0.2376,0.2415,0.2426,0.2435,0.2463,0.2475,0.2339,0.2339,0.2339,0,0.1774,0.1812,0.1855,0.1892,0.1926,0.1983,0.2021,0.206,0.2123,0.2154,0.2169,0.2245,0.226,0.2305,0.2335,0.2338,0.2358,0.2333,0.2426,0.2435,0.2443,0.247,0.2482,0.2343,0.2342,0.2342,0.2341,0,0.1793,0.1841,0.1864,0.193,0.1971,0.2017,0.2075,0.213,0.2184,0.2219,0.2298,0.2324,0.2368,0.2386,0.2383,0.2454,0.2448,0.2432,0.2396,0.246,0.2485,0.2495,0.2348,0.2347,0.2345,0.2345,0,0,0.177,0.1861,0.1875,0.191,0.1998,0.2028,0.2101,0.2171,0.2225,0.2297,0.2357,0.2415,0.2448,0.246,0.2473,0.2509,0.2593,0.2506,0.2507,0.2528,0.2685,0.2521,0.2517,0.2601,0.2603,0.2604,0.2682,0,0.1779,0.1843,0.189,0.1959,0.1998,0.207,0.2126,0.2201,0.2272,0.2346,0.24,0.2465,0.247,0.2508,0.255,0.2586,0.2624,0.2573,0.2624,0.2625,0.2466,0.2524,0.2611,0.2689,0.2692,0.2694,0.2695,0,0.178,0.1826,0.1891,0.1976,0.2002,0.2054,0.2158,0.2217,0.2327,0.2388,0.2469,0.2513,0.2597,0.2584,0.2684,0.2659,0.2682,0.2698,0.2701,0.2527,0.248,0.261,0.2714,0.2713,0.2711,0.271,0.2709,0,0.173,0.1823,0.1875,0.1906,0.2011,0.2062,0.2127,0.2237,0.2299,0.2427,0.2487,0.2583,0.2651,0.27,0.2754,0.2735,0.2846,0.2816,0.2684,0.2673,0.2769,0.2758,0.2873,0.2873,0.2873,0.2872,0.2872,0,0.1701,0.1748,0.1863,0.189,0.196,0.2046,0.2132,0.2214,0.2334,0.24,0.2512,0.257,0.2689,0.276,0.2785,0.2771,0.2877,0.2696,0.2682,0.2796,0.2788,0.2777,0.2765,0.2875,0.2875,0.2874,0.2873,0,0.1634,0.171,0.1775,0.1896,0.1939,0.1993,0.2131,0.2177,0.2317,0.2407,0.2453,0.2602,0.2693,0.2777,0.2867,0.2796,0.2803,0.2769,0.2901,0.2892,0.2597,0.2588,0.2618,0.2613,0.2609,0.2605,0.2602,0,0.16,0.163,0.1766,0.1801,0.1863,0.1958,0.2008,0.2157,0.2208,0.2396,0.2417,0.2566,0.2642,0.2644,0.2746,0.2776,0.2743,0.272,0.2635,0.2588,0.2572,0.257,0.2566,0.2595,0.2594,0.2593,0.2592,0,0.1532,0.1599,0.165,0.1727,0.1791,0.1843,0.1936,0.1964,0.2119,0.2269,0.2328,0.2375,0.2472,0.2541,0.2589,0.2602,0.2717,0.2673,0.2681,0.2602,0.256,0.2548,0.255,0.2576,0.2579,0.258,0.2581,0,0.1485,0.1501,0.1577,0.1627,0.1699,0.1701,0.1764,0.1822,0.1898,0.2107,0.2127,0.2288,0.2446,0.2452,0.2496,0.2499,0.2454,0.2355,0.2379,0.2397,0.2288,0.22,0.2097,0,0,0,0,0,0.1425,0.1425,0.1464,0.1499,0.156,0.1599,0.1698,0.1761,0.1921,0.1907,0.2014,0.2091,0.2161,0.2254,0.2215,0.2394,0.246,0.2335,0.2356,0.2492,0.2509,0.2401,0,0,0,0,0,0,0.138,0.1417,0.1423,0.1382,0.1381,0.142,0.1474,0.1573,0.1581,0.1764,0.1822,0.1963,0.2074,0.2171,0.2178,0.2204,0.217,0.2449,0.2443,0.2482,0.2498,0.2512,0.2406,0,0,0,0,0]},{"header":{"parameterUnit":"m.s-1","parameterCategory":2,"la1":30.2991,"la2":30.254,"lo1":-89.0895,"lo2":-89.0444,"dy":0.0017,"dx":0.0017,"nx":28,"ny":28,"refTime":"2025-08-06T21:00:00:Z","depth":"4","parameterNumber":3,"parameterNumberName":"V-component_of_CURRENTS"},"data":[0,0,0,0,0,0,0,0,0,0,0,0,0,0,0,0,0,0,0,0,0,0,0,0,0,0,0,0,0,0,0,0,0,0,0,0,0,0,0,0,0,0,0,0,0,0,0,0,0,0,0,0,0,0,0,0,0,0,0.0119,0.0118,0,0.0092,0.0091,0.0091,0.0075,0.0075,0.0075,0.0075,0.0031,0.003,0.0029,0,0,0,0,0,0,0,0,0,0,0,0,0,0.0119,0.0119,0.0119,0.0118,0.0118,0.0092,0.0091,0.0091,0.0075,0.0075,0.0075,0.0075,0.0032,0.003,0.0029,0,0,0,0,0,0,0,0,0,0,0,0,0,0.0108,0.0119,0.0119,0.0107,0.0106,0.0092,0.0091,0.0091,0.0075,0.0075,0.0075,0.0075,0.0032,0.0031,0.0029,0.0019,0,0,0.0024,0.0023,0,0,0,0,0,0,0,0,0.0108,0.0107,0.0109,0.0108,0.0107,0.0087,0.0075,0.0066,0.0075,0.0086,0.0075,0.0075,0.0049,0.0046,0.004,0.0017,0.0015,0.0024,0.0023,0.0022,0.0021,0,0,0,0,0,0,0,0.0109,0.0108,0.0107,0.0109,0.0107,0.0091,0.0089,0.0073,0.0067,0.0085,0.0084,0.0082,0.0048,0.0042,0.0039,0.0014,0.0024,0.0022,0.0021,0.002,-0.0008,-0.0008,0,0,0,0,0,0,0.0116,0.0109,0.0108,0.0107,0.0108,0.0091,0.0089,0.0093,0.0068,0.0064,0.0082,0.0081,0.0045,0.0041,0.0037,0.0042,0.0022,0.002,0.0019,-0.0009,-0.0008,-0.0008,0,0,0,0,0,0,0.0116,0.0116,0.0109,0.0107,0.0105,0.0091,0.0095,0.0092,0.009,0.0066,0.0062,0.0083,0.0045,0.004,0.003,0.004,0.0019,0.0018,-0.0009,-0.0009,-0.0008,0.0041,0,0,0,0,0,0,0.0116,0.0117,0.012,0.0108,0.0106,0.0107,0.0095,0.0092,0.0089,0.0088,0.0065,0.0061,0.0044,0.0033,0.0029,0.0037,0.0017,-0.0009,-0.0009,-0.0008,0.0039,0.0043,0.0046,0,0,0,0,0,0.0116,0.0126,0.0121,0.0121,0.0112,0.0108,0.0105,0.0094,0.0089,0.0091,0.0077,0.0062,0.0033,0.0032,0.0027,0.0035,-0.001,-0.0009,-0.0008,0.0037,0.0042,0.0046,0,0,0,0,0,0,0.0127,0.0124,0.0119,0.0127,0.012,0.0105,0.0106,0.0098,0.0088,0.0088,0.0065,0.0059,0.0053,0.0037,0.0036,0.0027,0.0009,0.0009,0.0045,0.005,0.0053,0.007,0.0015,0,0,0,0,0,0.0132,0.0139,0.013,0.0136,0.0134,0.012,0.0117,0.0111,0.01,0.0096,0.008,0.0063,0.005,0.0045,0.0028,0.0025,0.0002,0.0026,0.003,0.0033,0.0043,0.0015,0.0017,-0.0006,-0.0006,-0.0006,0,0,0.0137,0.0136,0.014,0.0138,0.0132,0.0139,0.0118,0.0119,0.0126,0.0093,0.0095,0.0074,0.0051,0.0047,0.0043,0.0037,0.0026,0.0034,0.0037,0.0045,0.0016,0.0018,0.002,-0.0006,-0.0006,-0.0006,0,0,0.0156,0.0152,0.0165,0.0163,0.0159,0.0153,0.0156,0.0146,0.0141,0.0138,0.0117,0.0105,0.0084,0.0073,0.0064,0.0077,0.0044,0.0069,0.0105,0.0077,0.0079,0.0081,0.005,0.0048,0.0074,0.0074,0.0074,0,0.0162,0.018,0.0167,0.0179,0.0185,0.0165,0.0183,0.0174,0.0162,0.0163,0.0146,0.0119,0.0098,0.0098,0.0104,0.0087,0.0063,0.0092,0.0083,0.0084,0.0084,0.0052,0.005,0.0077,0.0076,0.0076,0.0076,0,0.0191,0.0205,0.0212,0.0225,0.0228,0.0239,0.023,0.0229,0.0219,0.0213,0.0205,0.0171,0.0159,0.0146,0.013,0.0127,0.0106,0.0088,0.0074,0.009,0.0055,0.0051,0.008,0.0079,0.0079,0.0078,0,0,0.0211,0.023,0.0234,0.0252,0.0256,0.0266,0.0274,0.0282,0.0299,0.027,0.0282,0.0251,0.0232,0.022,0.0191,0.0168,0.0147,0.0136,0.0133,0.011,0.0082,0.0063,0.0057,0.0126,0.0126,0.0126,0.0054,0,0.0239,0.0278,0.0278,0.0319,0.0339,0.0329,0.0345,0.0348,0.0342,0.0345,0.0304,0.0304,0.026,0.0257,0.0226,0.017,0.014,0.0168,0.0067,0.0064,0.0049,0.0053,0.0125,0.0051,0.005,0.005,0.0049,0,0.0268,0.0294,0.0339,0.0377,0.0385,0.0406,0.0434,0.0449,0.0444,0.0439,0.0421,0.0386,0.0353,0.0309,0.0218,0.0236,0.0167,0.0114,0.011,0.0076,0.0039,0.0032,0.0042,0.0043,0.0043,0.0044,0.0044,0,0.0295,0.0337,0.0378,0.039,0.0426,0.0446,0.0468,0.0479,0.0511,0.0502,0.0515,0.0458,0.0439,0.0344,0.0231,0.0225,0.012,0.0096,0.0011,0.0008,0.0025,0.0024,0.0028,0.0028,0.0028,0.0029,0.0029,0,0.0326,0.0361,0.0397,0.0421,0.0482,0.049,0.0554,0.0562,0.059,0.0635,0.0572,0.0578,0.0448,0.0367,0.0252,0.0123,0.0133,0.002,-0.0009,0.0045,0.0048,0.0021,0.0022,0.0026,0.0026,0.0027,0.0027,0,0.0348,0.0369,0.0423,0.0473,0.0496,0.0542,0.0623,0.067,0.0683,0.0733,0.0734,0.0676,0.057,0.0424,0.027,0.0163,0.0033,-0.0019,0.0052,0.0027,-0.0069,-0.0065,-0.0118,-0.0119,-0.012,-0.0121,-0.0122,0,0.0361,0.039,0.0465,0.0511,0.0539,0.0613,0.067,0.0715,0.0771,0.0791,0.0817,0.0733,0.0668,0.0443,0.028,0.0051,0.0014,-0.0063,-0.0069,-0.0059,-0.0082,-0.0077,-0.0073,-0.0123,-0.0124,-0.0124,-0.0124,0,0.039,0.0415,0.0464,0.0557,0.0626,0.0716,0.0797,0.0844,0.0892,0.0901,0.0888,0.0764,0.0643,0.0455,0.0274,0.0109,-0.0018,-0.0075,-0.0074,-0.008,-0.0067,-0.0087,-0.0082,-0.0128,-0.0127,-0.0127,-0.0127,0,0.0412,0.045,0.0514,0.0599,0.0692,0.0787,0.0832,0.0893,0.0944,0.0956,0.0949,0.0807,0.073,0.0485,0.0322,0.0153,0.0105,0.0038,0.0032,0.0034,0.0092,0.0132,0.0112,0,0,0,0,0,0.0432,0.0477,0.0554,0.0648,0.0743,0.0802,0.0904,0.0943,0.098,0.0981,0.0969,0.0851,0.0609,0.0514,0.0344,0.0287,0.0066,0.0079,-0.0016,-0.0147,-0.0143,-0.0104,0,0,0,0,0,0,0.0445,0.0513,0.0551,0.0673,0.0746,0.0858,0.0927,0.0958,0.0964,0.0969,0.0855,0.079,0.0567,0.0705,0.0335,0.0284,0.0196,-0.003,-0.0034,-0.0149,-0.0146,-0.0142,-0.0101,0,0,0,0,0]}]]